Year,Month,Day,Hour,Minute,Value (Times are PST for temperature in C)
2010,10,04,00,00,9.10
2010,10,04,00,01,9.10
2010,10,04,00,02,9.00
2010,10,04,00,03,8.90
2010,10,04,00,04,8.80
2010,10,04,00,05,8.80
2010,10,04,00,06,8.70
2010,10,04,00,07,8.70
2010,10,04,00,08,8.60
2010,10,04,00,09,8.60
2010,10,04,00,10,8.60
2010,10,04,00,11,8.50
2010,10,04,00,12,8.50
2010,10,04,00,13,8.50
2010,10,04,00,14,8.50
2010,10,04,00,15,8.50
2010,10,04,00,16,8.50
2010,10,04,00,17,8.50
2010,10,04,00,18,8.50
2010,10,04,00,19,8.50
2010,10,04,00,20,8.50
2010,10,04,00,21,8.40
2010,10,04,00,22,8.40
2010,10,04,00,23,8.40
2010,10,04,00,24,8.50
2010,10,04,00,25,8.40
2010,10,04,00,26,8.40
2010,10,04,00,27,8.40
2010,10,04,00,28,8.40
2010,10,04,00,29,8.40
2010,10,04,00,30,8.40
2010,10,04,00,31,8.40
2010,10,04,00,32,8.40
2010,10,04,00,33,8.40
2010,10,04,00,34,8.40
2010,10,04,00,35,8.40
2010,10,04,00,36,8.40
2010,10,04,00,37,8.30
2010,10,04,00,38,8.30
2010,10,04,00,39,8.30
2010,10,04,00,40,8.30
2010,10,04,00,41,8.30
2010,10,04,00,42,8.20
2010,10,04,00,43,8.20
2010,10,04,00,44,8.20
2010,10,04,00,45,8.20
2010,10,04,00,46,8.10
2010,10,04,00,47,8.10
2010,10,04,00,48,8.10
2010,10,04,00,49,8.10
2010,10,04,00,50,8.10
2010,10,04,00,51,8.10
2010,10,04,00,52,8.10
2010,10,04,00,53,8.10
2010,10,04,00,54,8.10
2010,10,04,00,55,8.10
2010,10,04,00,56,8.10
2010,10,04,00,57,8.10
2010,10,04,00,58,8.10
2010,10,04,00,59,8.10
2010,10,04,01,00,8.10
2010,10,04,01,01,8.10
2010,10,04,01,02,8.10
2010,10,04,01,03,8.10
2010,10,04,01,04,8.10
2010,10,04,01,05,8.10
2010,10,04,01,06,8.10
2010,10,04,01,07,8.10
2010,10,04,01,08,8.10
2010,10,04,01,09,8.10
2010,10,04,01,10,8.00
2010,10,04,01,11,8.00
2010,10,04,01,12,8.00
2010,10,04,01,13,8.00
2010,10,04,01,14,8.00
2010,10,04,01,15,7.90
2010,10,04,01,16,7.90
2010,10,04,01,17,7.90
2010,10,04,01,18,7.90
2010,10,04,01,19,7.80
2010,10,04,01,20,7.80
2010,10,04,01,21,7.80
2010,10,04,01,22,7.80
2010,10,04,01,23,7.80
2010,10,04,01,24,7.80
2010,10,04,01,25,7.80
2010,10,04,01,26,7.80
2010,10,04,01,27,7.80
2010,10,04,01,28,7.80
2010,10,04,01,29,7.70
2010,10,04,01,30,7.70
2010,10,04,01,31,7.70
2010,10,04,01,32,7.70
2010,10,04,01,33,7.70
2010,10,04,01,34,7.80
2010,10,04,01,35,7.80
2010,10,04,01,36,7.80
2010,10,04,01,37,7.80
2010,10,04,01,38,7.80
2010,10,04,01,39,7.80
2010,10,04,01,40,7.80
2010,10,04,01,41,7.80
2010,10,04,01,42,7.80
2010,10,04,01,43,7.80
2010,10,04,01,44,7.80
2010,10,04,01,45,7.80
2010,10,04,01,46,7.80
2010,10,04,01,47,7.80
2010,10,04,01,48,7.80
2010,10,04,01,49,7.80
2010,10,04,01,50,7.80
2010,10,04,01,51,7.80
2010,10,04,01,52,7.80
2010,10,04,01,53,7.80
2010,10,04,01,54,7.80
2010,10,04,01,55,7.80
2010,10,04,01,56,7.70
2010,10,04,01,57,7.70
2010,10,04,01,58,7.70
2010,10,04,01,59,7.70
2010,10,04,02,00,7.60
2010,10,04,02,01,7.60
2010,10,04,02,02,7.60
2010,10,04,02,03,7.60
2010,10,04,02,04,7.60
2010,10,04,02,05,7.60
2010,10,04,02,06,7.60
2010,10,04,02,07,7.60
2010,10,04,02,08,7.60
2010,10,04,02,09,7.60
2010,10,04,02,10,7.60
2010,10,04,02,11,7.60
2010,10,04,02,12,7.60
2010,10,04,02,13,7.70
2010,10,04,02,14,7.70
2010,10,04,02,15,7.70
2010,10,04,02,16,7.70
2010,10,04,02,17,7.70
2010,10,04,02,18,7.70
2010,10,04,02,19,7.70
2010,10,04,02,20,7.70
2010,10,04,02,21,7.70
2010,10,04,02,22,7.70
2010,10,04,02,23,7.70
2010,10,04,02,24,7.70
2010,10,04,02,25,7.70
2010,10,04,02,26,7.70
2010,10,04,02,27,7.60
2010,10,04,02,28,7.60
2010,10,04,02,29,7.60
2010,10,04,02,30,7.60
2010,10,04,02,31,7.50
2010,10,04,02,32,7.50
2010,10,04,02,33,7.50
2010,10,04,02,34,7.40
2010,10,04,02,35,7.40
2010,10,04,02,36,7.40
2010,10,04,02,37,7.40
2010,10,04,02,38,7.30
2010,10,04,02,39,7.30
2010,10,04,02,40,7.30
2010,10,04,02,41,7.30
2010,10,04,02,42,7.30
2010,10,04,02,43,7.30
2010,10,04,02,44,7.30
2010,10,04,02,45,7.20
2010,10,04,02,46,7.20
2010,10,04,02,47,7.20
2010,10,04,02,48,7.20
2010,10,04,02,49,7.20
2010,10,04,02,50,7.20
2010,10,04,02,51,7.20
2010,10,04,02,52,7.20
2010,10,04,02,53,7.20
2010,10,04,02,54,7.20
2010,10,04,02,55,7.20
2010,10,04,02,56,7.20
2010,10,04,02,57,7.20
2010,10,04,02,58,7.10
2010,10,04,02,59,7.10
2010,10,04,03,00,7.10
2010,10,04,03,01,7.10
2010,10,04,03,02,7.00
2010,10,04,03,03,7.00
2010,10,04,03,04,6.90
2010,10,04,03,05,6.90
2010,10,04,03,06,6.90
2010,10,04,03,07,6.80
2010,10,04,03,08,6.80
2010,10,04,03,09,6.80
2010,10,04,03,10,6.70
2010,10,04,03,11,6.70
2010,10,04,03,12,6.70
2010,10,04,03,13,6.70
2010,10,04,03,14,6.70
2010,10,04,03,15,6.70
2010,10,04,03,16,6.70
2010,10,04,03,17,6.70
2010,10,04,03,18,6.60
2010,10,04,03,19,6.60
2010,10,04,03,20,6.60
2010,10,04,03,21,6.60
2010,10,04,03,22,6.60
2010,10,04,03,23,6.50
2010,10,04,03,24,6.50
2010,10,04,03,25,6.50
2010,10,04,03,26,6.40
2010,10,04,03,27,6.40
2010,10,04,03,28,6.40
2010,10,04,03,29,6.40
2010,10,04,03,30,6.30
2010,10,04,03,31,6.30
2010,10,04,03,32,6.30
2010,10,04,03,33,6.30
2010,10,04,03,34,6.30
2010,10,04,03,35,6.30
2010,10,04,03,36,6.30
2010,10,04,03,37,6.30
2010,10,04,03,38,6.30
2010,10,04,03,39,6.30
2010,10,04,03,40,6.30
2010,10,04,03,41,6.30
2010,10,04,03,42,6.30
2010,10,04,03,43,6.30
2010,10,04,03,44,6.30
2010,10,04,03,45,6.30
2010,10,04,03,46,6.30
2010,10,04,03,47,6.30
2010,10,04,03,48,6.30
2010,10,04,03,49,6.30
2010,10,04,03,50,6.30
2010,10,04,03,51,6.30
2010,10,04,03,52,6.30
2010,10,04,03,53,6.30
2010,10,04,03,54,6.30
2010,10,04,03,55,6.30
2010,10,04,03,56,6.30
2010,10,04,03,57,6.30
2010,10,04,03,58,6.30
2010,10,04,03,59,6.30
2010,10,04,04,00,6.30
2010,10,04,04,01,6.30
2010,10,04,04,02,6.30
2010,10,04,04,03,6.30
2010,10,04,04,04,6.30
2010,10,04,04,05,6.30
2010,10,04,04,06,6.30
2010,10,04,04,07,6.30
2010,10,04,04,08,6.20
2010,10,04,04,09,6.20
2010,10,04,04,10,6.20
2010,10,04,04,11,6.20
2010,10,04,04,12,6.20
2010,10,04,04,13,6.20
2010,10,04,04,14,6.10
2010,10,04,04,15,6.10
2010,10,04,04,16,6.10
2010,10,04,04,17,6.10
2010,10,04,04,18,6.10
2010,10,04,04,19,6.00
2010,10,04,04,20,5.90
2010,10,04,04,21,5.90
2010,10,04,04,22,5.80
2010,10,04,04,23,5.80
2010,10,04,04,24,5.70
2010,10,04,04,25,5.70
2010,10,04,04,26,5.70
2010,10,04,04,27,5.60
2010,10,04,04,28,5.60
2010,10,04,04,29,5.60
2010,10,04,04,30,5.60
2010,10,04,04,31,5.60
2010,10,04,04,32,5.60
2010,10,04,04,33,5.60
2010,10,04,04,34,5.60
2010,10,04,04,35,5.60
2010,10,04,04,36,5.60
2010,10,04,04,37,5.50
2010,10,04,04,38,5.50
2010,10,04,04,39,5.40
2010,10,04,04,40,5.40
2010,10,04,04,41,5.30
2010,10,04,04,42,5.30
2010,10,04,04,43,5.30
2010,10,04,04,44,5.30
2010,10,04,04,45,5.20
2010,10,04,04,46,5.20
2010,10,04,04,47,5.20
2010,10,04,04,48,5.20
2010,10,04,04,49,5.20
2010,10,04,04,50,5.20
2010,10,04,04,51,5.20
2010,10,04,04,52,5.20
2010,10,04,04,53,5.20
2010,10,04,04,54,5.20
2010,10,04,04,55,5.10
2010,10,04,04,56,5.10
2010,10,04,04,57,5.10
2010,10,04,04,58,5.10
2010,10,04,04,59,5.00
2010,10,04,05,00,5.00
2010,10,04,05,01,5.00
2010,10,04,05,02,4.90
2010,10,04,05,03,4.90
2010,10,04,05,04,4.90
2010,10,04,05,05,4.80
2010,10,04,05,06,4.80
2010,10,04,05,07,4.80
2010,10,04,05,08,4.80
2010,10,04,05,09,4.80
2010,10,04,05,10,4.80
2010,10,04,05,11,4.80
2010,10,04,05,12,4.70
2010,10,04,05,13,4.70
2010,10,04,05,14,4.70
2010,10,04,05,15,4.70
2010,10,04,05,16,4.70
2010,10,04,05,17,4.60
2010,10,04,05,18,4.60
2010,10,04,05,19,4.60
2010,10,04,05,20,4.70
2010,10,04,05,21,4.70
2010,10,04,05,22,4.70
2010,10,04,05,23,4.70
2010,10,04,05,24,4.70
2010,10,04,05,25,4.70
2010,10,04,05,26,4.70
2010,10,04,05,27,4.70
2010,10,04,05,28,4.70
2010,10,04,05,29,4.70
2010,10,04,05,30,4.60
2010,10,04,05,31,4.60
2010,10,04,05,32,4.60
2010,10,04,05,33,4.60
2010,10,04,05,34,4.50
2010,10,04,05,35,4.50
2010,10,04,05,36,4.60
2010,10,04,05,37,4.60
2010,10,04,05,38,4.60
2010,10,04,05,39,4.60
2010,10,04,05,40,4.60
2010,10,04,05,41,4.60
2010,10,04,05,42,4.60
2010,10,04,05,43,4.60
2010,10,04,05,44,4.50
2010,10,04,05,45,4.50
2010,10,04,05,46,4.40
2010,10,04,05,47,4.40
2010,10,04,05,48,4.30
2010,10,04,05,49,4.30
2010,10,04,05,50,4.30
2010,10,04,05,51,4.20
2010,10,04,05,52,4.20
2010,10,04,05,53,4.20
2010,10,04,05,54,4.20
2010,10,04,05,55,4.10
2010,10,04,05,56,4.10
2010,10,04,05,57,4.10
2010,10,04,05,58,4.10
2010,10,04,05,59,4.10
2010,10,04,06,00,4.10
2010,10,04,06,01,4.10
2010,10,04,06,02,4.10
2010,10,04,06,03,4.10
2010,10,04,06,04,4.10
2010,10,04,06,05,4.00
2010,10,04,06,06,4.00
2010,10,04,06,07,4.00
2010,10,04,06,08,4.00
2010,10,04,06,09,4.00
2010,10,04,06,10,4.00
2010,10,04,06,11,4.00
2010,10,04,06,12,4.00
2010,10,04,06,13,4.00
2010,10,04,06,14,3.90
2010,10,04,06,15,3.90
2010,10,04,06,16,3.90
2010,10,04,06,17,3.80
2010,10,04,06,18,3.80
2010,10,04,06,19,3.80
2010,10,04,06,20,3.70
2010,10,04,06,21,3.70
2010,10,04,06,22,3.70
2010,10,04,06,23,3.70
2010,10,04,06,24,3.70
2010,10,04,06,25,3.70
2010,10,04,06,26,3.70
2010,10,04,06,27,3.70
2010,10,04,06,28,3.70
2010,10,04,06,29,3.70
2010,10,04,06,30,3.70
2010,10,04,06,31,3.70
2010,10,04,06,32,3.70
2010,10,04,06,33,3.70
2010,10,04,06,34,3.70
2010,10,04,06,35,3.70
2010,10,04,06,36,3.70
2010,10,04,06,37,3.80
2010,10,04,06,38,3.80
2010,10,04,06,39,3.80
2010,10,04,06,40,3.80
2010,10,04,06,41,3.90
2010,10,04,06,42,3.80
2010,10,04,06,43,3.80
2010,10,04,06,44,3.80
2010,10,04,06,45,3.80
2010,10,04,06,46,3.80
2010,10,04,06,47,3.80
2010,10,04,06,48,3.70
2010,10,04,06,49,3.70
2010,10,04,06,50,3.70
2010,10,04,06,51,3.60
2010,10,04,06,52,3.60
2010,10,04,06,53,3.60
2010,10,04,06,54,3.60
2010,10,04,06,55,3.50
2010,10,04,06,56,3.50
2010,10,04,06,57,3.50
2010,10,04,06,58,3.50
2010,10,04,06,59,3.40
2010,10,04,07,00,3.40
2010,10,04,07,01,3.40
2010,10,04,07,02,3.40
2010,10,04,07,03,3.40
2010,10,04,07,04,3.40
2010,10,04,07,05,3.30
2010,10,04,07,06,3.30
2010,10,04,07,07,3.30
2010,10,04,07,08,3.30
2010,10,04,07,09,3.30
2010,10,04,07,10,3.30
2010,10,04,07,11,3.30
2010,10,04,07,12,3.30
2010,10,04,07,13,3.30
2010,10,04,07,14,3.30
2010,10,04,07,15,3.30
2010,10,04,07,16,3.30
2010,10,04,07,17,3.40
2010,10,04,07,18,3.40
2010,10,04,07,19,3.50
2010,10,04,07,20,3.50
2010,10,04,07,21,3.50
2010,10,04,07,22,3.50
2010,10,04,07,23,3.60
2010,10,04,07,24,3.60
2010,10,04,07,25,3.60
2010,10,04,07,26,3.60
2010,10,04,07,27,3.60
2010,10,04,07,28,3.50
2010,10,04,07,29,3.50
2010,10,04,07,30,3.50
2010,10,04,07,31,3.60
2010,10,04,07,32,3.60
2010,10,04,07,33,3.60
2010,10,04,07,34,3.60
2010,10,04,07,35,3.60
2010,10,04,07,36,3.60
2010,10,04,07,37,3.60
2010,10,04,07,38,3.60
2010,10,04,07,39,3.60
2010,10,04,07,40,3.60
2010,10,04,07,41,3.60
2010,10,04,07,42,3.60
2010,10,04,07,43,3.60
2010,10,04,07,44,3.60
2010,10,04,07,45,3.60
2010,10,04,07,46,3.60
2010,10,04,07,47,3.60
2010,10,04,07,48,3.60
2010,10,04,07,49,3.60
2010,10,04,07,50,3.60
2010,10,04,07,51,3.60
2010,10,04,07,52,3.70
2010,10,04,07,53,3.70
2010,10,04,07,54,3.70
2010,10,04,07,55,3.80
2010,10,04,07,56,3.80
2010,10,04,07,57,3.80
2010,10,04,07,58,3.90
2010,10,04,07,59,3.90
2010,10,04,08,00,3.90
2010,10,04,08,01,4.00
2010,10,04,08,02,4.00
2010,10,04,08,03,4.00
2010,10,04,08,04,4.10
2010,10,04,08,05,4.10
2010,10,04,08,06,4.10
2010,10,04,08,07,4.20
2010,10,04,08,08,4.20
2010,10,04,08,09,4.20
2010,10,04,08,10,4.30
2010,10,04,08,11,4.30
2010,10,04,08,12,4.30
2010,10,04,08,13,4.40
2010,10,04,08,14,4.50
2010,10,04,08,15,4.60
2010,10,04,08,16,4.70
2010,10,04,08,17,4.80
2010,10,04,08,18,4.90
2010,10,04,08,19,4.90
2010,10,04,08,20,5.00
2010,10,04,08,21,5.10
2010,10,04,08,22,5.20
2010,10,04,08,23,5.20
2010,10,04,08,24,5.30
2010,10,04,08,25,5.40
2010,10,04,08,26,5.50
2010,10,04,08,27,5.50
2010,10,04,08,28,5.60
2010,10,04,08,29,5.60
2010,10,04,08,30,5.70
2010,10,04,08,31,5.80
2010,10,04,08,32,5.90
2010,10,04,08,33,6.10
2010,10,04,08,34,6.20
2010,10,04,08,35,6.30
2010,10,04,08,36,6.40
2010,10,04,08,37,6.50
2010,10,04,08,38,6.60
2010,10,04,08,39,6.70
2010,10,04,08,40,6.70
2010,10,04,08,41,6.80
2010,10,04,08,42,6.90
2010,10,04,08,43,7.00
2010,10,04,08,44,7.10
2010,10,04,08,45,7.20
2010,10,04,08,46,7.30
2010,10,04,08,47,7.40
2010,10,04,08,48,7.60
2010,10,04,08,49,7.70
2010,10,04,08,50,7.80
2010,10,04,08,51,7.90
2010,10,04,08,52,8.00
2010,10,04,08,53,8.10
2010,10,04,08,54,8.10
2010,10,04,08,55,8.20
2010,10,04,08,56,8.20
2010,10,04,08,57,8.20
2010,10,04,08,58,8.30
2010,10,04,08,59,8.30
2010,10,04,09,00,8.40
2010,10,04,09,01,8.60
2010,10,04,09,02,8.70
2010,10,04,09,03,8.80
2010,10,04,09,04,8.90
2010,10,04,09,05,9.00
2010,10,04,09,06,9.20
2010,10,04,09,07,9.30
2010,10,04,09,08,9.50
2010,10,04,09,09,9.60
2010,10,04,09,10,9.70
2010,10,04,09,11,9.90
2010,10,04,09,12,10.00
2010,10,04,09,13,10.20
2010,10,04,09,14,10.40
2010,10,04,09,15,10.50
2010,10,04,09,16,10.70
2010,10,04,09,17,10.80
2010,10,04,09,18,10.90
2010,10,04,09,19,10.90
2010,10,04,09,20,11.00
2010,10,04,09,21,11.00
2010,10,04,09,22,11.00
2010,10,04,09,23,11.10
2010,10,04,09,24,11.10
2010,10,04,09,25,11.20
2010,10,04,09,26,11.20
2010,10,04,09,27,11.20
2010,10,04,09,28,11.30
2010,10,04,09,29,11.30
2010,10,04,09,30,11.30
2010,10,04,09,31,11.40
2010,10,04,09,32,11.40
2010,10,04,09,33,11.40
2010,10,04,09,34,11.40
2010,10,04,09,35,11.40
2010,10,04,09,36,11.40
2010,10,04,09,37,11.40
2010,10,04,09,38,11.40
2010,10,04,09,39,11.50
2010,10,04,09,40,11.60
2010,10,04,09,41,11.60
2010,10,04,09,42,11.70
2010,10,04,09,43,11.70
2010,10,04,09,44,11.80
2010,10,04,09,45,11.80
2010,10,04,09,46,11.90
2010,10,04,09,47,12.10
2010,10,04,09,48,12.20
2010,10,04,09,49,12.40
2010,10,04,09,50,12.50
2010,10,04,09,51,12.70
2010,10,04,09,52,12.80
2010,10,04,09,53,12.80
2010,10,04,09,54,12.90
2010,10,04,09,55,13.00
2010,10,04,09,56,13.10
2010,10,04,09,57,13.20
2010,10,04,09,58,13.20
2010,10,04,09,59,13.30
2010,10,04,10,00,13.30
2010,10,04,10,01,13.30
2010,10,04,10,02,13.30
2010,10,04,10,03,13.40
2010,10,04,10,04,13.40
2010,10,04,10,05,13.40
2010,10,04,10,06,13.50
2010,10,04,10,07,13.60
2010,10,04,10,08,13.70
2010,10,04,10,09,13.70
2010,10,04,10,10,13.80
2010,10,04,10,11,13.80
2010,10,04,10,12,13.80
2010,10,04,10,13,13.80
2010,10,04,10,14,13.80
2010,10,04,10,15,13.90
2010,10,04,10,16,14.00
2010,10,04,10,17,14.20
2010,10,04,10,18,14.30
2010,10,04,10,19,14.40
2010,10,04,10,20,14.50
2010,10,04,10,21,14.60
2010,10,04,10,22,14.70
2010,10,04,10,23,14.80
2010,10,04,10,24,14.80
2010,10,04,10,25,14.80
2010,10,04,10,26,14.80
2010,10,04,10,27,14.80
2010,10,04,10,28,14.80
2010,10,04,10,29,14.80
2010,10,04,10,30,14.80
2010,10,04,10,31,14.90
2010,10,04,10,32,14.90
2010,10,04,10,33,15.00
2010,10,04,10,34,15.00
2010,10,04,10,35,14.90
2010,10,04,10,36,14.90
2010,10,04,10,37,14.80
2010,10,04,10,38,14.80
2010,10,04,10,39,14.90
2010,10,04,10,40,14.90
2010,10,04,10,41,14.90
2010,10,04,10,42,14.90
2010,10,04,10,43,15.00
2010,10,04,10,44,15.00
2010,10,04,10,45,15.00
2010,10,04,10,46,14.90
2010,10,04,10,47,14.80
2010,10,04,10,48,14.60
2010,10,04,10,49,14.60
2010,10,04,10,50,14.50
2010,10,04,10,51,14.40
2010,10,04,10,52,14.40
2010,10,04,10,53,14.30
2010,10,04,10,54,14.30
2010,10,04,10,55,14.20
2010,10,04,10,56,14.20
2010,10,04,10,57,14.10
2010,10,04,10,58,14.10
2010,10,04,10,59,14.00
2010,10,04,11,00,14.00
2010,10,04,11,01,13.90
2010,10,04,11,02,13.80
2010,10,04,11,03,13.80
2010,10,04,11,04,13.70
2010,10,04,11,05,13.60
2010,10,04,11,06,13.50
2010,10,04,11,07,13.50
2010,10,04,11,08,13.40
2010,10,04,11,09,13.40
2010,10,04,11,10,13.40
2010,10,04,11,11,13.30
2010,10,04,11,12,13.30
2010,10,04,11,13,13.30
2010,10,04,11,14,13.30
2010,10,04,11,15,13.30
2010,10,04,11,16,13.30
2010,10,04,11,17,13.30
2010,10,04,11,18,13.30
2010,10,04,11,19,13.30
2010,10,04,11,20,13.30
2010,10,04,11,21,13.40
2010,10,04,11,22,13.40
2010,10,04,11,23,13.40
2010,10,04,11,24,13.40
2010,10,04,11,25,13.40
2010,10,04,11,26,13.40
2010,10,04,11,27,13.50
2010,10,04,11,28,13.50
2010,10,04,11,29,13.60
2010,10,04,11,30,13.60
2010,10,04,11,31,13.60
2010,10,04,11,32,13.60
2010,10,04,11,33,13.60
2010,10,04,11,34,13.60
2010,10,04,11,35,13.60
2010,10,04,11,36,13.50
2010,10,04,11,37,13.50
2010,10,04,11,38,13.50
2010,10,04,11,39,13.40
2010,10,04,11,40,13.40
2010,10,04,11,41,13.50
2010,10,04,11,42,13.50
2010,10,04,11,43,13.50
2010,10,04,11,44,13.60
2010,10,04,11,45,13.60
2010,10,04,11,46,13.60
2010,10,04,11,47,13.60
2010,10,04,11,48,13.60
2010,10,04,11,49,13.70
2010,10,04,11,50,13.70
2010,10,04,11,51,13.80
2010,10,04,11,52,13.80
2010,10,04,11,53,13.90
2010,10,04,11,54,13.90
2010,10,04,11,55,14.00
2010,10,04,11,56,14.10
2010,10,04,11,57,14.10
2010,10,04,11,58,14.20
2010,10,04,11,59,14.30
2010,10,04,12,00,14.30
2010,10,04,12,01,14.30
2010,10,04,12,02,14.40
2010,10,04,12,03,14.40
2010,10,04,12,04,14.40
2010,10,04,12,05,14.50
2010,10,04,12,06,14.50
2010,10,04,12,07,14.60
2010,10,04,12,08,14.70
2010,10,04,12,09,14.80
2010,10,04,12,10,14.90
2010,10,04,12,11,15.00
2010,10,04,12,12,15.00
2010,10,04,12,13,15.00
2010,10,04,12,14,15.00
2010,10,04,12,15,15.00
2010,10,04,12,16,15.00
2010,10,04,12,17,15.00
2010,10,04,12,18,15.00
2010,10,04,12,19,14.90
2010,10,04,12,20,14.70
2010,10,04,12,21,14.60
2010,10,04,12,22,14.60
2010,10,04,12,23,14.50
2010,10,04,12,24,14.40
2010,10,04,12,25,14.40
2010,10,04,12,26,14.40
2010,10,04,12,27,14.40
2010,10,04,12,28,14.30
2010,10,04,12,29,14.30
2010,10,04,12,30,14.30
2010,10,04,12,31,14.20
2010,10,04,12,32,14.20
2010,10,04,12,33,14.20
2010,10,04,12,34,14.20
2010,10,04,12,35,14.20
2010,10,04,12,36,14.30
2010,10,04,12,37,14.30
2010,10,04,12,38,14.30
2010,10,04,12,39,14.40
2010,10,04,12,40,14.50
2010,10,04,12,41,14.60
2010,10,04,12,42,14.60
2010,10,04,12,43,14.70
2010,10,04,12,44,14.60
2010,10,04,12,45,14.50
2010,10,04,12,46,14.40
2010,10,04,12,47,14.40
2010,10,04,12,48,14.30
2010,10,04,12,49,14.30
2010,10,04,12,50,14.30
2010,10,04,12,51,14.30
2010,10,04,12,52,14.30
2010,10,04,12,53,14.40
2010,10,04,12,54,14.40
2010,10,04,12,55,14.50
2010,10,04,12,56,14.50
2010,10,04,12,57,14.40
2010,10,04,12,58,14.40
2010,10,04,12,59,14.40
2010,10,04,13,00,14.50
2010,10,04,13,01,14.70
2010,10,04,13,02,14.70
2010,10,04,13,03,14.90
2010,10,04,13,04,15.00
2010,10,04,13,05,15.00
2010,10,04,13,06,15.00
2010,10,04,13,07,15.00
2010,10,04,13,08,15.00
2010,10,04,13,09,15.00
2010,10,04,13,10,15.00
2010,10,04,13,11,15.00
2010,10,04,13,12,15.00
2010,10,04,13,13,15.00
2010,10,04,13,14,15.00
2010,10,04,13,15,14.90
2010,10,04,13,16,14.80
2010,10,04,13,17,14.80
2010,10,04,13,18,14.80
2010,10,04,13,19,14.80
2010,10,04,13,20,14.80
2010,10,04,13,21,14.90
2010,10,04,13,22,14.90
2010,10,04,13,23,14.90
2010,10,04,13,24,14.90
2010,10,04,13,25,14.90
2010,10,04,13,26,14.80
2010,10,04,13,27,14.80
2010,10,04,13,28,14.80
2010,10,04,13,29,14.80
2010,10,04,13,30,14.80
2010,10,04,13,31,14.80
2010,10,04,13,32,14.70
2010,10,04,13,33,14.70
2010,10,04,13,34,14.70
2010,10,04,13,35,14.60
2010,10,04,13,36,14.70
2010,10,04,13,37,14.70
2010,10,04,13,38,14.80
2010,10,04,13,39,14.80
2010,10,04,13,40,14.80
2010,10,04,13,41,14.80
2010,10,04,13,42,14.80
2010,10,04,13,43,14.80
2010,10,04,13,44,14.70
2010,10,04,13,45,14.70
2010,10,04,13,46,14.70
2010,10,04,13,47,14.70
2010,10,04,13,48,14.70
2010,10,04,13,49,14.70
2010,10,04,13,50,14.70
2010,10,04,13,51,14.80
2010,10,04,13,52,14.80
2010,10,04,13,53,14.80
2010,10,04,13,54,14.80
2010,10,04,13,55,14.80
2010,10,04,13,56,14.80
2010,10,04,13,57,14.80
2010,10,04,13,58,14.70
2010,10,04,13,59,14.70
2010,10,04,14,00,14.70
2010,10,04,14,01,14.80
2010,10,04,14,02,14.80
2010,10,04,14,03,14.90
2010,10,04,14,04,14.90
2010,10,04,14,05,14.90
2010,10,04,14,06,14.90
2010,10,04,14,07,14.90
2010,10,04,14,08,14.90
2010,10,04,14,09,14.90
2010,10,04,14,10,14.80
2010,10,04,14,11,14.80
2010,10,04,14,12,14.80
2010,10,04,14,13,14.80
2010,10,04,14,14,14.80
2010,10,04,14,15,14.90
2010,10,04,14,16,15.00
2010,10,04,14,17,15.00
2010,10,04,14,18,15.00
2010,10,04,14,19,15.00
2010,10,04,14,20,15.00
2010,10,04,14,21,15.00
2010,10,04,14,22,15.00
2010,10,04,14,23,15.00
2010,10,04,14,24,15.00
2010,10,04,14,25,15.00
2010,10,04,14,26,15.00
2010,10,04,14,27,15.00
2010,10,04,14,28,15.00
2010,10,04,14,29,15.00
2010,10,04,14,30,15.00
2010,10,04,14,31,15.00
2010,10,04,14,32,15.00
2010,10,04,14,33,15.00
2010,10,04,14,34,15.10
2010,10,04,14,35,15.10
2010,10,04,14,36,15.10
2010,10,04,14,37,15.00
2010,10,04,14,38,15.00
2010,10,04,14,39,15.00
2010,10,04,14,40,15.00
2010,10,04,14,41,15.00
2010,10,04,14,42,15.00
2010,10,04,14,43,15.00
2010,10,04,14,44,15.00
2010,10,04,14,45,15.00
2010,10,04,14,46,15.00
2010,10,04,14,47,15.00
2010,10,04,14,48,15.00
2010,10,04,14,49,15.00
2010,10,04,14,50,15.00
2010,10,04,14,51,15.00
2010,10,04,14,52,15.00
2010,10,04,14,53,15.00
2010,10,04,14,54,15.00
2010,10,04,14,55,15.00
2010,10,04,14,56,15.00
2010,10,04,14,57,15.00
2010,10,04,14,58,15.00
2010,10,04,14,59,14.90
2010,10,04,15,00,14.80
2010,10,04,15,01,14.80
2010,10,04,15,02,14.80
2010,10,04,15,03,14.80
2010,10,04,15,04,14.80
2010,10,04,15,05,14.80
2010,10,04,15,06,14.80
2010,10,04,15,07,14.90
2010,10,04,15,08,14.90
2010,10,04,15,09,15.00
2010,10,04,15,10,15.00
2010,10,04,15,11,15.00
2010,10,04,15,12,15.00
2010,10,04,15,13,15.00
2010,10,04,15,14,15.00
2010,10,04,15,15,15.00
2010,10,04,15,16,15.00
2010,10,04,15,17,15.00
2010,10,04,15,18,15.00
2010,10,04,15,19,15.00
2010,10,04,15,20,15.00
2010,10,04,15,21,15.00
2010,10,04,15,22,14.90
2010,10,04,15,23,15.00
2010,10,04,15,24,15.00
2010,10,04,15,25,15.00
2010,10,04,15,26,15.00
2010,10,04,15,27,14.90
2010,10,04,15,28,14.90
2010,10,04,15,29,14.80
2010,10,04,15,30,14.90
2010,10,04,15,31,15.00
2010,10,04,15,32,15.00
2010,10,04,15,33,15.00
2010,10,04,15,34,15.00
2010,10,04,15,35,15.00
2010,10,04,15,36,15.00
2010,10,04,15,37,15.00
2010,10,04,15,38,15.00
2010,10,04,15,39,15.00
2010,10,04,15,40,15.00
2010,10,04,15,41,15.00
2010,10,04,15,42,15.00
2010,10,04,15,43,15.00
2010,10,04,15,44,15.00
2010,10,04,15,45,15.00
2010,10,04,15,46,15.00
2010,10,04,15,47,15.00
2010,10,04,15,48,15.00
2010,10,04,15,49,15.00
2010,10,04,15,50,15.00
2010,10,04,15,51,15.00
2010,10,04,15,52,15.00
2010,10,04,15,53,15.00
2010,10,04,15,54,15.00
2010,10,04,15,55,15.00
2010,10,04,15,56,15.00
2010,10,04,15,57,15.00
2010,10,04,15,58,15.00
2010,10,04,15,59,15.00
2010,10,04,16,00,15.00
2010,10,04,16,01,15.00
2010,10,04,16,02,15.00
2010,10,04,16,03,15.00
2010,10,04,16,04,15.00
2010,10,04,16,05,15.00
2010,10,04,16,06,15.00
2010,10,04,16,07,15.00
2010,10,04,16,08,15.00
2010,10,04,16,09,15.00
2010,10,04,16,10,15.00
2010,10,04,16,11,15.10
2010,10,04,16,12,15.10
2010,10,04,16,13,15.00
2010,10,04,16,14,15.00
2010,10,04,16,15,15.00
2010,10,04,16,16,15.00
2010,10,04,16,17,15.00
2010,10,04,16,18,15.00
2010,10,04,16,19,15.00
2010,10,04,16,20,14.90
2010,10,04,16,21,14.90
2010,10,04,16,22,14.90
2010,10,04,16,23,14.90
2010,10,04,16,24,14.80
2010,10,04,16,25,14.80
2010,10,04,16,26,14.80
2010,10,04,16,27,14.70
2010,10,04,16,28,14.70
2010,10,04,16,29,14.60
2010,10,04,16,30,14.50
2010,10,04,16,31,14.50
2010,10,04,16,32,14.50
2010,10,04,16,33,14.50
2010,10,04,16,34,14.50
2010,10,04,16,35,14.50
2010,10,04,16,36,14.50
2010,10,04,16,37,14.40
2010,10,04,16,38,14.40
2010,10,04,16,39,14.40
2010,10,04,16,40,14.40
2010,10,04,16,41,14.40
2010,10,04,16,42,14.40
2010,10,04,16,43,14.40
2010,10,04,16,44,14.40
2010,10,04,16,45,14.40
2010,10,04,16,46,14.40
2010,10,04,16,47,14.40
2010,10,04,16,48,14.40
2010,10,04,16,49,14.40
2010,10,04,16,50,14.40
2010,10,04,16,51,14.40
2010,10,04,16,52,14.30
2010,10,04,16,53,14.30
2010,10,04,16,54,14.30
2010,10,04,16,55,14.30
2010,10,04,16,56,14.30
2010,10,04,16,57,14.30
2010,10,04,16,58,14.30
2010,10,04,16,59,14.30
2010,10,04,17,00,14.30
2010,10,04,17,01,14.30
2010,10,04,17,02,14.30
2010,10,04,17,03,14.30
2010,10,04,17,04,14.30
2010,10,04,17,05,14.30
2010,10,04,17,06,14.30
2010,10,04,17,07,14.30
2010,10,04,17,08,14.30
2010,10,04,17,09,14.30
2010,10,04,17,10,14.30
2010,10,04,17,11,14.40
2010,10,04,17,12,14.40
2010,10,04,17,13,14.40
2010,10,04,17,14,14.40
2010,10,04,17,15,14.30
2010,10,04,17,16,14.30
2010,10,04,17,17,14.30
2010,10,04,17,18,14.30
2010,10,04,17,19,14.30
2010,10,04,17,20,14.40
2010,10,04,17,21,14.40
2010,10,04,17,22,14.40
2010,10,04,17,23,14.30
2010,10,04,17,24,14.30
2010,10,04,17,25,14.30
2010,10,04,17,26,14.30
2010,10,04,17,27,14.30
2010,10,04,17,28,14.30
2010,10,04,17,29,14.30
2010,10,04,17,30,14.30
2010,10,04,17,31,14.30
2010,10,04,17,32,14.30
2010,10,04,17,33,14.20
2010,10,04,17,34,14.20
2010,10,04,17,35,14.20
2010,10,04,17,36,14.20
2010,10,04,17,37,14.20
2010,10,04,17,38,14.20
2010,10,04,17,39,14.20
2010,10,04,17,40,14.20
2010,10,04,17,41,14.30
2010,10,04,17,42,14.30
2010,10,04,17,43,14.30